Radiation Dose at Monitoring Post of Fukushima Daini Nuclear Power Station
Date,Time,MP-1(microSv/h),MP-2(microSv/h),MP-3(microSv/h),MP-4(microSv/h),MP-5(microSv/h),MP-6(microSv/h),MP-7(microSv/h),Wind Direction,Wind Velocity(m/s),Rain
2016/11/14,00:00,0.403,0.234,0.417,0.379,0.361,0.197,0.169,north-northwest,1.9,No
2016/11/14,00:10,0.407,0.236,0.416,0.382,0.362,0.196,0.169,northwest,2.5,No
2016/11/14,00:20,0.405,0.235,0.417,0.380,0.362,0.196,0.168,northwest,2.8,No
2016/11/14,00:30,0.405,0.234,0.416,0.382,0.362,0.196,0.169,north-northwest,1.8,No
2016/11/14,00:40,0.406,0.235,0.415,0.382,0.363,0.196,0.169,north,1.9,No
2016/11/14,00:50,0.405,0.235,0.417,0.382,0.365,0.197,0.168,northwest,1.1,No
2016/11/14,01:00,0.404,0.233,0.416,0.382,0.362,0.196,0.168,northwest,2.0,No
2016/11/14,01:10,0.408,0.233,0.417,0.380,0.362,0.197,0.168,northwest,1.9,No
2016/11/14,01:20,0.403,0.234,0.415,0.379,0.361,0.196,0.169,northwest,1.5,No
2016/11/14,01:30,0.405,0.235,0.416,0.381,0.361,0.196,0.168,northwest,1.9,No
2016/11/14,01:40,0.407,0.234,0.418,0.380,0.363,0.195,0.169,north-northwest,2.2,No
2016/11/14,01:50,0.405,0.234,0.414,0.381,0.361,0.197,0.169,north,1.8,No
2016/11/14,02:00,0.405,0.234,0.417,0.382,0.363,0.196,0.168,north-northwest,2.6,No
2016/11/14,02:10,0.405,0.234,0.417,0.380,0.363,0.197,0.168,north,2.5,No
2016/11/14,02:20,0.405,0.234,0.415,0.383,0.361,0.196,0.169,north,1.9,No
2016/11/14,02:30,0.408,0.234,0.418,0.381,0.364,0.197,0.169,north,1.9,No
2016/11/14,02:40,0.405,0.234,0.416,0.380,0.363,0.196,0.168,north,3.2,No
2016/11/14,02:50,0.405,0.236,0.415,0.381,0.360,0.196,0.168,north,2.8,No
2016/11/14,03:00,0.406,0.234,0.417,0.379,0.366,0.196,0.168,north,3.8,No
2016/11/14,03:10,0.406,0.234,0.414,0.383,0.361,0.197,0.168,north,4.2,No
2016/11/14,03:20,0.406,0.234,0.416,0.380,0.362,0.196,0.169,north,4.0,No
2016/11/14,03:30,0.407,0.235,0.416,0.380,0.363,0.196,0.169,north,3.9,No
2016/11/14,03:40,0.404,0.234,0.416,0.382,0.362,0.196,0.168,north,4.1,No
2016/11/14,03:50,0.406,0.234,0.418,0.381,0.361,0.196,0.168,north,5.2,No
2016/11/14,04:00,0.407,0.234,0.416,0.380,0.363,0.195,0.168,north,5.0,No
2016/11/14,04:10,0.404,0.233,0.415,0.381,0.361,0.197,0.168,north,3.6,No
2016/11/14,04:20,0.407,0.235,0.416,0.378,0.362,0.196,0.168,north,5.5,No
2016/11/14,04:30,0.407,0.234,0.414,0.381,0.365,0.196,0.168,north,5.5,No
2016/11/14,04:40,0.404,0.234,0.416,0.382,0.362,0.196,0.168,north,5.2,No
2016/11/14,04:50,0.407,0.234,0.418,0.381,0.362,0.196,0.168,north,6.1,No
2016/11/14,05:00,0.406,0.234,0.416,0.380,0.362,0.196,0.168,north,6.3,No
2016/11/14,05:10,0.405,0.234,0.417,0.381,0.363,0.195,0.169,north,6.8,No
2016/11/14,05:20,0.407,0.233,0.417,0.380,0.363,0.196,0.167,north,7.1,No
2016/11/14,05:30,0.405,0.234,0.413,0.382,0.362,0.197,0.168,north,6.6,No
2016/11/14,05:40,0.405,0.234,0.417,0.380,0.362,0.196,0.168,north,7.0,No
2016/11/14,05:50,0.408,0.234,0.417,0.380,0.363,0.196,0.168,north,6.4,No
2016/11/14,06:00,0.405,0.235,0.415,0.380,0.361,0.196,0.169,north,5.1,No
2016/11/14,06:10,0.407,0.235,0.416,0.380,0.364,0.196,0.169,north,5.9,No
2016/11/14,06:20,0.405,0.234,0.413,0.384,0.363,0.196,0.168,north,5.0,No
2016/11/14,06:30,0.407,0.234,0.418,0.381,0.362,0.196,0.169,north,6.5,No
2016/11/14,06:40,0.406,0.234,0.417,0.379,0.364,0.197,0.168,north-northwest,5.5,No
2016/11/14,06:50,0.406,0.235,0.416,0.381,0.361,0.196,0.169,north,4.2,No
2016/11/14,07:00,0.405,0.235,0.415,0.380,0.362,0.196,0.168,north,3.3,No
2016/11/14,07:10,0.405,0.235,0.415,0.381,0.363,0.197,0.167,north,3.2,No
2016/11/14,07:20,0.404,0.234,0.418,0.380,0.363,0.196,0.168,north-northwest,4.7,No
2016/11/14,07:30,0.406,0.235,0.416,0.379,0.362,0.197,0.168,north,5.0,No
2016/11/14,07:40,0.406,0.235,0.416,0.381,0.361,0.196,0.168,north,3.5,No
2016/11/14,07:50,0.407,0.234,0.417,0.378,0.364,0.197,0.167,north-northwest,3.4,No
2016/11/14,08:00,0.406,0.235,0.416,0.381,0.359,0.196,0.169,north-northwest,3.9,No
2016/11/14,08:10,0.404,0.234,0.418,0.379,0.364,0.197,0.168,north,3.4,No
2016/11/14,08:20,0.407,0.234,0.415,0.380,0.361,0.195,0.167,north-northwest,2.8,No
2016/11/14,08:30,0.404,0.234,0.415,0.378,0.362,0.196,0.168,north,2.0,No
2016/11/14,08:40,0.406,0.234,0.412,0.379,0.360,0.196,0.168,north,2.2,No
2016/11/14,08:50,0.403,0.234,0.419,0.377,0.361,0.196,0.168,north-northwest,2.2,No
2016/11/14,09:00,0.406,0.234,0.414,0.379,0.363,0.195,0.167,north-northwest,2.1,No
2016/11/14,09:10,0.404,0.234,0.418,0.380,0.359,0.196,0.168,north,2.2,No
2016/11/14,09:20,0.406,0.235,0.413,0.379,0.363,0.195,0.168,north,1.8,No
2016/11/14,09:30,0.405,0.234,0.418,0.380,0.361,0.197,0.169,north,1.9,No
2016/11/14,09:40,0.406,0.234,0.413,0.380,0.363,0.196,0.168,north,2.0,No
2016/11/14,09:50,0.404,0.233,0.418,0.378,0.361,0.196,0.169,north,1.8,No
2016/11/14,10:00,0.406,0.235,0.414,0.379,0.362,0.196,0.168,north,1.2,No
2016/11/14,10:10,0.403,0.234,0.416,0.377,0.361,0.196,0.168,northeast,1.3,No
2016/11/14,10:20,0.407,0.234,0.413,0.382,0.362,0.196,0.169,north,0.7,No
2016/11/14,10:30,0.402,0.234,0.418,0.378,0.361,0.197,0.167,east-southeast,1.4,No
2016/11/14,10:40,0.405,0.233,0.414,0.376,0.359,0.196,0.169,northeast,1.1,No
2016/11/14,10:50,0.406,0.235,0.416,0.380,0.362,0.195,0.168,northeast,0.8,No
2016/11/14,11:00,0.404,0.233,0.413,0.378,0.362,0.196,0.168,northeast,2.0,No
2016/11/14,11:10,0.407,0.233,0.415,0.378,0.360,0.194,0.168,northeast,1.1,No
2016/11/14,11:20,0.404,0.235,0.414,0.379,0.362,0.196,0.168,east-northeast,0.8,No
2016/11/14,11:30,0.406,0.232,0.416,0.377,0.361,0.196,0.169,northeast,0.8,No
2016/11/14,11:40,0.406,0.234,0.413,0.382,0.362,0.195,0.170,north-northeast,1.3,No
2016/11/14,11:50,0.406,0.233,0.415,0.378,0.362,0.197,0.168,-,CALM,No
2016/11/14,12:00,0.407,0.235,0.414,0.380,0.359,0.196,0.170,north-northeast,1.0,No
2016/11/14,12:10,0.407,0.234,0.415,0.381,0.363,0.198,0.168,north-northeast,1.5,No
2016/11/14,12:20,0.407,0.234,0.418,0.379,0.360,0.196,0.170,north,1.3,No
2016/11/14,12:30,0.406,0.234,0.413,0.382,0.364,0.196,0.168,-,CALM,No
2016/11/14,12:40,0.406,0.233,0.416,0.379,0.363,0.195,0.170,north-northeast,1.3,No
2016/11/14,12:50,0.405,0.235,0.412,0.381,0.363,0.196,0.168,-,CALM,No
2016/11/14,13:00,0.406,0.233,0.418,0.378,0.364,0.196,0.169,north-northwest,0.6,No
2016/11/14,13:10,0.405,0.235,0.414,0.380,0.362,0.196,0.168,north,0.6,No
2016/11/14,13:20,0.407,0.234,0.417,0.381,0.362,0.197,0.169,northwest,0.7,No
2016/11/14,13:30,0.406,0.235,0.412,0.381,0.362,0.196,0.168,-,CALM,No
2016/11/14,13:40,0.406,0.234,0.418,0.379,0.363,0.196,0.169,-,CALM,No
2016/11/14,13:50,0.405,0.234,0.415,0.381,0.361,0.195,0.168,northeast,0.5,No
2016/11/14,14:00,0.407,0.234,0.415,0.381,0.364,0.197,0.167,-,CALM,No
2016/11/14,14:10,0.404,0.235,0.415,0.379,0.361,0.195,0.169,north-northeast,0.9,No
2016/11/14,14:20,0.407,0.234,0.418,0.381,0.364,0.196,0.168,northeast,0.8,No
2016/11/14,14:30,0.405,0.236,0.418,0.381,0.360,0.197,0.169,north-northeast,0.6,No
2016/11/14,14:40,0.406,0.234,0.416,0.380,0.364,0.196,0.169,-,CALM,No
2016/11/14,14:50,0.406,0.235,0.417,0.380,0.361,0.197,0.168,northeast,1.1,No
2016/11/14,15:00,0.408,0.233,0.415,0.381,0.364,0.195,0.168,northeast,0.8,No
2016/11/14,15:10,0.406,0.236,0.417,0.380,0.360,0.197,0.168,north-northeast,0.9,No
2016/11/14,15:20,0.406,0.235,0.417,0.383,0.362,0.196,0.168,north-northeast,0.5,No
2016/11/14,15:30,0.405,0.235,0.416,0.379,0.362,0.196,0.168,north-northeast,0.9,No
2016/11/14,15:40,0.405,0.234,0.416,0.382,0.362,0.196,0.169,-,CALM,No
2016/11/14,15:50,0.405,0.235,0.416,0.379,0.362,0.197,0.168,-,CALM,No
2016/11/14,16:00,0.404,0.234,0.416,0.382,0.361,0.197,0.168,-,CALM,No
2016/11/14,16:10,0.407,0.234,0.419,0.380,0.363,0.197,0.169,northeast,0.7,No
2016/11/14,16:20,0.406,0.234,0.415,0.381,0.361,0.197,0.168,east-northeast,1.1,No
2016/11/14,16:30,0.408,0.234,0.416,0.380,0.363,0.198,0.169,-,CALM,No
2016/11/14,16:40,0.405,0.235,0.416,0.380,0.362,0.197,0.168,-,CALM,No
2016/11/14,16:50,0.407,0.235,0.415,0.381,0.364,0.196,0.168,-,CALM,No
2016/11/14,17:00,0.405,0.235,0.417,0.379,0.362,0.196,0.169,-,CALM,No
2016/11/14,17:10,0.407,0.235,0.415,0.382,0.363,0.196,0.168,south-southeast,0.5,No
2016/11/14,17:20,0.406,0.235,0.418,0.380,0.361,0.196,0.168,south-southeast,1.5,No
2016/11/14,17:30,0.409,0.235,0.415,0.382,0.362,0.196,0.168,south,0.5,No
2016/11/14,17:40,0.405,0.235,0.417,0.379,0.363,0.196,0.168,south-southeast,1.1,No
2016/11/14,17:50,0.407,0.237,0.415,0.381,0.362,0.196,0.168,south-southeast,0.8,No
2016/11/14,18:00,0.408,0.234,0.417,0.380,0.366,0.196,0.169,south-southeast,1.4,No
2016/11/14,18:10,0.406,0.235,0.416,0.380,0.362,0.196,0.168,south-southeast,2.5,No
2016/11/14,18:20,0.407,0.235,0.415,0.380,0.363,0.197,0.169,south-southeast,2.4,No
2016/11/14,18:30,0.405,0.236,0.419,0.380,0.363,0.196,0.169,south,2.1,No
2016/11/14,18:40,0.407,0.237,0.417,0.380,0.363,0.197,0.168,south-southeast,2.2,No
2016/11/14,18:50,0.405,0.234,0.417,0.380,0.364,0.197,0.170,south-southeast,1.7,No
2016/11/14,19:00,0.405,0.235,0.416,0.384,0.362,0.198,0.169,southeast,3.3,No
2016/11/14,19:10,0.406,0.236,0.417,0.379,0.365,0.197,0.169,south,5.8,No
2016/11/14,19:20,0.407,0.234,0.415,0.382,0.363,0.197,0.169,south,6.5,No
2016/11/14,19:30,0.407,0.236,0.415,0.381,0.364,0.197,0.168,south,5.0,No
2016/11/14,19:40,0.408,0.235,0.417,0.381,0.361,0.196,0.168,south,6.5,No
2016/11/14,19:50,0.406,0.235,0.414,0.382,0.362,0.197,0.169,south,8.2,No
2016/11/14,20:00,0.407,0.235,0.417,0.380,0.364,0.197,0.169,south,7.3,No
2016/11/14,20:10,0.407,0.234,0.415,0.382,0.362,0.197,0.169,south,6.8,No
2016/11/14,20:20,0.407,0.236,0.418,0.379,0.364,0.198,0.169,south,8.1,No
2016/11/14,20:30,0.404,0.234,0.417,0.382,0.364,0.197,0.169,south,8.6,No
2016/11/14,20:40,0.406,0.235,0.418,0.380,0.363,0.198,0.169,south,8.8,No
2016/11/14,20:50,0.407,0.235,0.418,0.381,0.363,0.196,0.169,south,9.2,No
2016/11/14,21:00,0.406,0.235,0.415,0.380,0.361,0.197,0.170,south,8.0,No
2016/11/14,21:10,0.409,0.236,0.416,0.381,0.365,0.197,0.169,south,6.8,No
2016/11/14,21:20,0.407,0.234,0.416,0.384,0.361,0.197,0.168,south,6.4,No
2016/11/14,21:30,0.407,0.235,0.417,0.379,0.366,0.197,0.170,south,7.8,No
2016/11/14,21:40,0.406,0.235,0.416,0.384,0.364,0.197,0.168,south,8.9,No
2016/11/14,21:50,0.407,0.235,0.415,0.380,0.362,0.196,0.170,south-southwest,7.8,No
2016/11/14,22:00,0.406,0.236,0.417,0.380,0.362,0.197,0.168,south-southwest,7.5,No
2016/11/14,22:10,0.405,0.235,0.415,0.381,0.360,0.196,0.168,south-southwest,7.3,No
2016/11/14,22:20,0.406,0.235,0.417,0.382,0.364,0.196,0.169,south-southwest,7.3,No
2016/11/14,22:30,0.407,0.235,0.415,0.381,0.361,0.197,0.168,south,7.3,No
2016/11/14,22:40,0.406,0.234,0.418,0.380,0.364,0.197,0.170,south-southwest,8.1,No
2016/11/14,22:50,0.406,0.236,0.414,0.382,0.362,0.196,0.168,south-southwest,8.4,Yes
2016/11/14,23:00,0.405,0.235,0.416,0.381,0.364,0.197,0.170,south-southwest,8.6,No
2016/11/14,23:10,0.407,0.235,0.414,0.380,0.362,0.196,0.168,south,9.1,Yes
2016/11/14,23:20,0.405,0.235,0.419,0.380,0.362,0.197,0.170,south-southwest,9.9,Yes
2016/11/14,23:30,0.410,0.235,0.415,0.383,0.363,0.199,0.170,south-southwest,9.1,Yes
2016/11/14,23:40,0.407,0.236,0.420,0.382,0.364,0.197,0.169,south-southwest,7.5,Yes
2016/11/14,23:50,0.411,0.236,0.416,0.382,0.363,0.198,0.171,south-southwest,9.5,Yes
